SCP
0 0 0 0 0 0 0 0 0 0 0 0 0 0 0 0 0 0 0 0 0 0 0 0 0 0 0 0 0 0 0 0 0 0 0 0 0 0 0 0 0 0 0 0 0 0 0 0 0 -0 0 -0 -0 -0
0 0 0 0 0 0 0 0 0 0 0 0 0 0 0 0 0 0 0 0 0 0 0 0 0 0 -0 -0 0 0 0 0 0 0 0 0 0 0 0 0 0 0 0 0 0 0 0 0 -0 -0 -0 -0 -0 -0
0 0 0 0 0 0 0 0 0 0 0 0 0 0 0 0 0 0 0 0 0 0 0 0 0 0 0 0 0 0 0 0 0 0 0 0 0 0 0 0 0 0 0 0 0 0 0 -0 -0 -0 -0 -0 -0 -0
0 0 0 0 0 0 0 0 0 0 0 0 -0 0 -0 0 0 0 0 0 0 0 0 0 0 0 0 0 0 0 0 0 0 0 0 0 0 0 0 0 0 0 0 0 0 0 0 -0 -0 -0 0 0 -0 -0
0 0 0 0 0 0 0 0 0 0 0 0 -0 0 0 0 0 0 0 0 0 0 0 0 0 0 0 0 0 0 0 0 0 0 0 0 0 0 0 0 -0 0 0 0 0 0 0 0 -0 0 0 0 -0 -0
0 0 0 0 0 0 0 0 0 0 0 0 0 0 0 0 0 0 0 0 0 0 0 0 0 0 0 0 0 0 0 0 0 0 0 0 0 0 0 -0 0 0 0 0 0 -0 0 0 -0 -0 0 0 -0 -0
0 0 0 0 0 0 0 0 0 0 0 0 0 0 0 0 0 0 0 0 0 0 0 0 0 0 0 0 0 0 0 0 0 0 0 0 0 0 0 -0 0 0 0 -0 -0 -0 0 0 0 0 0 0 -0 0
0 0 0 0 0 0 0 0 0 0 0 0 0 0 0 0 0 0 0 0 0 0 0 0 0 0 0 0 0 0 0 0 0 0 0 0 0 0 0 0 0 0 0 -0 0 0 0 0 0 0 0 0 0 0
0 0 0 0 0 0 0 0 0 0 0 0 0 0 0 0 0 0 0 0 0 0 0 0 0 0 0 0 0 0 0 0 0 0 0 0 -0 -0 0 0 0 0 0 -0 0 0 0 0 0 0 0 0 0 0
0 0 0 0 0 0 0 0 0 -0 0 0 0 0 0 0 0 0 0 0 0 0 0 0 0 0 0 0 0 0 0 0 0 0 0 -0 0 0 0 0 0 0 0 0 0 0 0 0 0 -0 -0 0 0 0
0 0 0 0 0 0 0 0 0 0 0 0 0 0 0 0 0 0 0 0 0 0 0 0 0 -0 0 0 0 0 0 0 0 0 -0 -0 -0 -0 0 0 0 0 0 0 0 0 0 0 0 -0 -0 0 0 0
-0 -0 -0 0 0 0 -0 -0 0 0 0 0 0 0 0 0 0 0 0 0 0 0 0 -0 -0 0 0 0 0 0 0 0 0 -0 -0 0 0 -0 -0 0 0 0 0 0 0 0 0 0 0 -0 0 0 0 -0
-0 -0 -0 -0 0 -0 0 0 0 -0 0 0 0 0 0 0 0 0 0 0 -0 -0 0 0 -0 0 0 0 0 0 0 0 0 -0 -0 0 -0 -0 -0 0 0 0 0 0 -0 -0 0 0 0 -0 -0 -0 -0 -0
0 -0 -0 0 -0 -0 0 0 -0 0 0 0 0 0 0 0 0 0 0 0 0 0 0 0 0 -0 0 0 0 0 0 0 -0 -0 0 0 -0 -0 -0 0 0 0 0 0 -0 -0 -0 -0 -0 -0 -0 -0 -0 -0
-0 -0 0 0 -0 0 0 0 0 0 0 0 0 0 -0 0 0 0 0 0 -0 0 0 0 -0 0 0 0 0 0 0 0 -0 0 0 0 -0 -0 -0 -0 0 0 0 0 -0 0 -0 -0 -0 -0 -0 0 0 0
-0 0 -0 -0 -0 0 0 -0 0 0 0 0 0 0 0 0 0 -0 -0 -0 -0 -0 0 0 0 0 0 0 0 0 0 0 0 0 0 0 -0 -0 -0 -0 -0 0 0 0 0 -0 0 -0 -0 -0 -0 -0 0 -0
0 0 -0 0 0 0 -0 0 0 0 0 0 0 0 0 0 0 0 -0 -0 0 -0 -0 0 0 0 -0 0 0 0 0 0 0 0 0 0 -0 -0 -0 -0 -0 0 0 0 -0 -0 0 0 -0 0 -0 -0 -0 -0
0 0 0 0 0 0 0 0 0 0 0 0 0 0 -0 -0 -0 -0 -0 0 0 -0 0 0 0 0 0 -0 0 0 0 0 0 0 0 0 -0 -0 -0 -0 -0 0 0 -0 -0 -0 -0 -0 -0 -0 -0 -0 0 -0
0 0 0 0 0 0 0 0 0 0 -0 0 -0 0 -0 0 -0 -0 0 0 -0 0 0 0 0 0 0 0 0 0 0 0 0 0 0 0 -0 -0 -0 0 0 0 0 0 0 0 0 0 0 -0 -0 -0 -0 -0
0 0 0 0 0 0 0 0 0 -0 0 0 0 -0 0 0 -0 -0 0 0 0 0 0 0 0 -0 0 0 0 0 0 0 0 0 0 0 0 0 0 0 0 0 0 0 0 -0 0 0 0 0 0 0 0 0
0 0 -0 0 0 0 0 0 0 0 0 0 0 -0 0 -0 -0 -0 0 0 0 0 0 0 0 0 0 0 0 0 0 0 0 0 0 0 0 0 0 0 0 0 0 0 0 0 0 0 0 0 0 0 0 0
0 0 0 0 0 0 0 0 0 0 0 0 0 -0 -0 -0 -0 -0 0 -0 0 0 0 0 0 0 0 0 0 0 0 0 0 0 0 0 0 0 0 0 0 0 0 0 0 0 0 0 0 0 0 0 0 0
0 0 0 0 0 0 0 0 0 0 0 0 -0 -0 -0 -0 -0 0 -0 0 0 0 0 0 -0 -0 -0 0 0 0 0 0 0 0 0 0 0 0 0 0 0 0 0 0 0 0 0 0 0 0 0 0 0 0
0 0 0 0 0 0 0 -0 0 0 -0 0 -0 0 -0 0 0 -0 -0 0 0 0 0 -0 -0 0 0 0 0 0 0 0 -0 0 0 0 0 0 0 0 0 0 0 0 0 0 0 0 0 0 0 0 0 0
0 0 0 0 0 0 -0 -0 -0 0 0 0 0 0 0 0 0 0 0 0 0 0 0 0 0 0 0 0 0 -0 -0 -0 -0 -0 0 0 0 0 0 0 0 0 0 0 0 0 0 0 0 0 0 0 0 0
0 0 0 0 0 0 0 0 -0 -0 0 0 0 0 0 0 0 0 0 0 0 0 0 0 0 0 0 0 -0 -0 -0 0 0 0 0 0 0 0 0 0 0 0 0 0 0 0 0 0 0 0 0 0 0 0
0 0 0 0 0 0 0 0 -0 -0 0 0 0 0 0 0 0 0 0 0 0 0 0 0 0 0 -0 -0 -0 0 0 0 0 0 0 0 0 0 0 0 0 0 0 0 0 0 0 0 0 0 0 0 0 0
0 0 0 -0 -0 -0 -0 -0 -0 0 0 0 0 0 0 0 0 0 0 0 0 0 0 0 -0 -0 0 0 0 0 0 0 0 0 0 0 0 0 0 0 0 0 0 0 0 0 0 0 0 0 0 0 0 0
0 0 -0 -0 0 -0 -0 0 0 0 0 0 0 0 0 0 0 0 0 0 0 0 0 0 0 0 0 0 0 0 0 0 0 0 0 0 0 0 0 0 0 0 0 0 0 0 0 0 0 0 0 0 0 0
0 0 0 0 0 0 0 0 0 0 0 0 0 0 0 0 0 0 0 0 0 0 0 0 0 0 0 0 0 0 0 0 0 0 0 0 0 0 0 0 0 0 0 0 0 0 0 0 0 0 0 0 0 0
0 0 0 0 0 0 0 0 0 0 0 0 0 0 0 0 0 0 0 0 0 0 0 0 0 0 0 0 0 0 0 0 0 0 0 0 0 0 0 0 0 0 0 0 0 0 0 0 0 0 0 0 0 0
0 0 0 0 0 0 0 0 0 0 0 0 0 0 0 0 0 0 0 0 0 0 0 0 0 0 0 0 0 0 0 0 0 0 0 0 0 0 0 0 0 0 0 0 0 0 0 0 0 0 0 0 0 0
0 0 0 0 0 0 0 0 0 0 0 0 0 0 0 0 0 0 0 0 0 0 0 0 0 0 0 0 0 0 0 0 0 0 0 0 0 0 0 0 0 0 0 0 0 0 0 0 0 0 0 0 0 0
Wind_Speed_500mb
38 35 33 35 35 36 35 31 30 26 26 18 20 19 20 20 19 17 13 15 16 11 28 23 13 17 18 14 6 4 14 3 4 6 6 6 7 3 6 6 11 18 16 12 16 10 14 4 10 10 23 37 45 52
40 38 35 33 31 31 30 29 29 28 26 26 21 20 21 21 22 20 21 18 20 25 21 30 47 43 41 33 10 8 6 1 4 5 4 7 7 7 4 5 8 8 10 5 9 3 3 6 12 17 18 42 46 53
39 39 37 34 33 33 32 30 29 29 30 31 27 22 22 23 24 25 24 18 15 16 33 16 9 12 9 21 33 15 10 11 8 3 5 5 7 3 5 8 9 8 8 7 5 6 2 20 10 11 34 40 49 52
38 39 38 35 36 36 32 30 28 27 24 32 32 21 21 26 26 29 21 15 14 10 6 3 4 13 15 27 29 41 25 9 4 10 6 6 6 5 5 7 13 6 4 9 16 17 13 4 11 29 37 41 48 52
36 37 38 37 35 35 32 30 28 25 24 30 30 21 19 26 29 22 20 17 17 12 7 21 42 13 12 12 31 35 43 30 11 6 6 5 7 6 9 10 16 18 14 12 9 10 14 24 28 32 37 44 49 54
31 34 33 31 31 31 28 28 28 25 24 25 29 21 21 29 25 19 10 17 25 22 7 7 9 10 8 8 18 31 35 31 14 7 8 11 3 8 6 7 1 3 6 3 11 16 23 29 25 29 38 44 50 53
28 27 28 30 29 28 27 27 25 22 20 22 31 24 17 32 31 20 10 4 7 17 5 10 7 4 5 6 20 22 27 16 13 8 9 10 5 9 6 12 4 5 2 4 12 17 22 17 33 35 36 43 48 49
29 29 27 27 27 25 26 23 20 18 24 25 31 22 27 37 28 24 20 13 9 9 6 6 7 7 8 8 11 20 15 19 16 7 6 8 6 12 7 2 8 4 3 10 12 18 23 27 29 30 35 43 49 50
32 29 29 29 29 25 21 15 15 22 29 25 31 25 37 26 16 15 11 15 19 11 6 8 5 1 2 1 5 17 18 8 12 6 7 8 7 10 4 8 13 9 6 13 19 21 18 23 26 31 38 43 47 52
32 30 30 28 27 24 22 17 21 21 19 22 34 14 12 13 18 22 12 12 11 7 10 6 13 9 6 5 4 2 10 6 5 8 13 8 6 6 5 7 10 5 3 13 20 17 22 24 28 33 38 39 41 47
32 30 27 25 25 22 25 19 17 15 19 48 14 10 20 27 17 8 7 8 9 7 11 12 21 15 8 9 2 6 2 3 5 7 8 7 5 11 11 8 6 1 7 10 11 14 16 21 28 34 36 36 38 42
33 32 29 26 23 20 27 23 14 20 28 20 12 23 27 11 7 6 7 9 9 7 13 10 10 17 8 6 6 5 4 4 4 17 6 3 7 17 16 9 1 5 8 9 11 11 15 21 24 26 29 33 35 37
35 33 31 29 25 20 31 24 24 34 22 29 9 12 9 7 8 10 13 8 7 9 10 11 6 8 9 10 6 4 8 5 12 6 5 4 18 20 14 7 1 4 5 6 10 13 17 21 23 25 26 28 30 33
26 30 32 25 25 23 27 18 21 31 26 10 9 10 9 9 9 9 9 2 4 5 10 13 6 9 10 8 5 6 2 4 5 8 4 10 19 21 13 5 5 8 7 9 11 15 19 22 24 23 24 25 28 31
23 18 18 22 22 19 20 19 22 46 11 6 7 8 12 12 5 2 1 8 10 9 6 8 7 11 6 5 5 5 6 7 6 4 6 19 25 20 13 13 11 9 9 11 12 17 20 22 23 23 24 24 26 30
17 17 24 25 23 19 26 27 48 38 8 8 8 6 10 6 11 20 19 22 15 16 9 8 4 5 6 5 8 8 5 2 4 7 20 29 24 19 19 16 12 10 10 12 14 17 19 22 24 24 25 27 28 31
16 15 12 14 27 22 31 46 29 12 9 6 8 17 15 10 13 8 11 10 8 11 5 5 7 6 5 4 4 2 1 4 14 22 26 24 24 25 21 16 12 9 11 12 14 18 18 19 21 24 28 30 30 31
18 14 9 22 38 34 28 26 9 10 10 14 9 11 18 14 12 11 7 11 6 8 7 4 5 4 3 5 5 5 8 13 20 27 26 26 27 24 19 16 12 10 10 11 13 15 17 19 22 25 26 28 28 33
16 10 22 29 38 21 12 15 9 7 15 7 15 15 12 15 17 16 12 11 8 13 5 4 5 5 3 1 6 8 17 24 30 27 29 28 26 23 18 15 12 10 9 10 10 12 14 18 19 22 24 27 29 34
19 22 17 19 25 11 7 7 14 6 7 6 10 12 13 10 7 14 16 13 13 7 7 7 6 5 13 5 8 5 20 30 34 35 32 27 23 19 16 13 10 8 8 8 9 12 11 13 18 21 25 27 28 32
25 19 14 29 26 8 9 8 8 7 4 7 6 10 8 9 14 15 10 15 10 6 6 12 14 14 4 5 3 17 28 29 26 29 35 32 24 19 17 13 11 7 6 7 8 10 14 14 17 20 23 25 26 28
24 26 29 35 7 8 3 8 4 5 6 5 5 8 7 6 10 11 11 13 7 10 11 14 18 12 2 4 18 24 28 25 24 30 30 31 26 23 18 14 11 9 8 7 7 7 10 13 17 18 21 23 25 25
33 24 10 12 4 5 5 10 6 6 5 4 3 3 5 5 3 10 5 8 9 15 17 20 24 9 11 12 21 28 26 27 30 30 30 24 24 21 19 14 12 10 8 7 7 6 7 14 16 18 20 23 24 25
21 11 6 9 7 7 8 8 5 4 4 4 3 5 4 3 10 5 3 3 2 11 19 21 26 10 5 15 19 26 27 24 28 28 24 24 24 20 16 14 11 9 7 6 5 5 7 10 17 16 19 22 23 24
8 8 9 5 7 9 9 8 7 4 6 8 4 5 3 7 4 3 2 3 8 12 10 13 22 19 14 15 17 22 25 25 27 26 23 19 21 20 16 13 11 8 6 4 4 5 7 10 13 16 18 20 25 24
4 8 10 14 10 9 9 5 9 9 5 7 8 3 4 3 4 5 4 7 11 11 7 9 18 18 17 16 20 21 25 22 21 23 21 20 18 15 15 13 10 4 5 5 4 5 7 10 14 18 19 21 29 26
7 7 10 10 7 7 6 8 4 3 6 7 3 5 4 5 5 5 4 12 9 10 5 11 13 17 19 22 24 25 23 22 21 21 23 21 18 15 11 8 7 8 9 7 6 7 8 12 15 18 20 20 22 24
3 10 8 18 11 10 1 2 5 5 5 5 8 1 2 8 5 5 4 5 12 8 12 19 21 17 21 24 23 23 23 23 23 24 27 24 20 14 12 10 10 13 8 3 7 9 12 14 17 19 20 21 22 23
6 10 10 11 4 7 5 2 3 3 6 3 3 4 6 7 9 8 8 10 19 16 17 22 24 21 28 29 30 28 24 21 24 25 18 16 12 12 13 12 11 8 3 9 13 16 20 24 24 22 19 20 21 22
8 16 5 6 1 3 4 3 2 3 8 12 15 15 14 12 17 15 24 14 12 16 22 24 26 25 24 25 30 33 34 29 22 10 7 15 16 15 12 10 7 4 4 7 9 17 25 20 20 19 20 19 22 24
22 11 6 6 5 6 14 18 17 16 11 15 19 23 19 14 23 23 26 26 16 19 21 27 27 26 26 24 19 19 19 16 15 14 14 16 15 12 9 5 4 4 7 10 12 15 17 16 17 18 19 21 23 25
12 8 10 6 5 12 9 6 8 9 9 10 12 15 10 9 8 8 20 26 20 26 26 25 29 28 23 21 20 20 23 24 20 16 14 13 10 6 4 4 6 8 9 10 11 13 14 14 14 18 20 22 25 27
9 12 15 11 8 7 7 7 6 6 7 6 6 7 8 7 7 4 8 18 23 22 25 25 29 29 28 27 26 23 16 11 9 7 5 3 2 4 8 8 7 8 9 9 11 14 16 17 18 20 22 24 26 28
Wind_Direction_500mb
285 288 287 282 277 275 278 279 271 267 270 282 283 274 260 258 267 262 253 236 225 233 286 264 245 255 256 233 240 312 299 144 251 250 248 263 251 148 266 186 185 184 186 203 229 246 257 78 301 315 336 314 316 319
282 281 281 282 281 280 279 277 275 269 267 263 275 273 265 251 255 253 242 259 258 238 257 285 278 260 245 241 254 217 291 268 286 281 290 282 224 187 59 271 210 245 227 226 228 255 118 303 304 306 319 314 319 317
278 277 277 278 279 280 279 278 277 276 264 253 258 264 255 246 243 258 253 259 261 272 299 265 280 230 193 223 222 224 216 228 230 258 293 280 274 263 223 244 281 220 215 243 273 124 307 305 305 281 324 319 318 315
280 275 276 275 277 278 275 272 276 283 279 243 248 262 247 242 249 249 254 246 245 267 278 300 237 225 278 254 229 226 218 205 238 316 284 257 257 243 277 318 273 356 271 275 261 268 313 189 319 323 320 322 319 319
283 281 275 275 274 273 271 267 271 285 292 245 246 249 250 242 235 242 246 247 246 234 283 288 296 285 232 231 230 221 220 229 247 253 231 257 272 264 238 283 258 242 280 270 277 358 310 304 321 321 323 325 324 324
286 283 280 276 271 268 265 262 265 274 280 253 239 240 239 232 223 219 244 259 238 240 283 287 322 288 240 251 200 203 220 216 219 233 247 261 253 267 266 264 64 218 225 315 314 309 300 301 312 324 323 324 326 327
291 291 292 283 269 267 264 264 264 265 277 255 231 241 232 239 216 202 206 168 182 180 231 277 268 211 231 250 182 184 189 204 204 232 233 269 236 242 261 264 183 199 228 283 291 304 302 321 322 324 324 325 327 328
292 292 291 289 281 271 264 257 257 275 280 271 228 235 255 209 217 221 233 248 240 197 198 270 269 269 190 202 181 186 188 195 213 241 211 233 224 230 255 222 107 138 258 279 283 302 303 312 318 326 328 331 334 335
287 288 289 285 282 276 253 242 264 280 279 263 210 230 190 186 197 217 228 219 225 202 227 225 253 294 184 211 230 188 185 190 186 219 203 195 224 226 290 175 176 185 219 305 308 309 316 324 328 333 336 337 338 337
283 281 283 276 271 262 237 252 281 284 272 182 188 168 169 179 180 142 143 185 207 235 232 241 242 255 233 167 278 227 192 205 208 209 164 223 247 80 52 125 142 139 305 319 320 330 333 333 336 337 339 338 339 339
275 275 277 267 272 256 233 249 262 215 200 182 171 164 137 138 143 156 171 204 186 232 219 228 234 241 263 251 220 273 170 219 220 158 206 194 225 161 166 145 129 9 334 330 327 326 329 330 335 338 341 343 344 344
268 266 266 266 267 265 228 243 230 228 188 194 171 126 136 169 157 181 201 178 221 244 189 217 213 208 238 231 235 235 255 239 208 158 214 252 120 145 159 162 146 344 338 336 340 350 348 345 345 343 343 346 348 348
265 255 258 257 259 268 227 232 209 204 192 148 154 143 163 152 192 212 193 193 215 202 194 195 190 186 197 199 223 230 228 196 146 170 217 111 145 155 162 168 115 10 12 37 18 9 360 356 357 357 352 352 354 354
269 265 256 247 241 260 231 204 221 208 189 188 165 157 220 176 229 211 249 30 105 201 197 213 194 188 184 179 233 237 129 160 206 205 186 134 156 158 158 148 126 95 65 34 27 19 12 9 7 8 5 3 1 3
274 253 238 236 232 244 206 192 203 191 173 185 182 213 209 241 243 149 254 250 233 235 261 286 211 182 191 225 215 225 188 216 225 95 101 126 146 149 142 130 116 95 66 46 37 25 21 19 19 20 15 14 16 15
263 236 244 243 230 234 194 196 183 188 206 204 222 237 225 228 234 220 240 253 249 243 244 218 248 201 202 218 195 215 214 205 115 103 123 141 142 140 137 129 114 93 68 54 43 31 29 30 31 32 31 29 21 17
228 229 249 203 195 174 178 181 184 197 210 215 232 231 257 265 275 238 221 238 238 186 193 213 219 192 155 207 208 181 144 84 126 126 138 143 143 141 138 131 117 94 70 60 46 36 36 36 37 36 30 24 19 18
222 236 220 171 163 169 174 193 183 188 228 225 234 218 214 240 256 241 256 205 196 198 201 227 319 182 212 171 136 128 129 123 129 136 138 140 140 138 136 132 123 106 80 64 54 47 43 40 34 28 23 21 18 17
213 215 176 173 174 165 155 179 200 217 226 236 245 242 237 253 251 240 225 259 248 208 248 198 237 188 184 209 23 123 146 148 141 137 137 140 140 137 132 130 127 107 84 66 59 53 42 37 34 26 20 20 19 14
195 185 168 172 185 183 155 175 181 218 219 233 236 237 235 250 259 227 212 229 232 194 201 200 215 198 161 331 356 129 155 151 146 141 144 147 147 142 139 137 138 118 82 63 48 58 37 32 25 20 15 17 19 15
176 184 184 185 177 170 176 169 182 202 235 243 245 238 257 246 241 221 200 207 185 225 211 189 186 139 24 351 117 146 149 152 156 157 154 151 152 148 142 136 128 115 88 62 55 35 39 27 15 12 13 9 13 10
172 177 170 178 163 193 173 189 187 176 212 246 232 226 240 219 230 211 178 194 219 213 214 189 159 164 261 107 131 139 143 140 138 144 147 148 147 145 140 135 125 108 93 77 64 49 33 17 18 9 6 7 6 0
171 175 139 174 141 165 149 163 184 203 228 237 204 226 231 223 127 155 211 209 221 217 198 172 159 106 124 128 138 143 142 139 140 142 146 148 146 143 137 131 121 110 90 69 65 46 17 20 358 11 2 1 360 358
156 150 150 160 172 167 171 186 206 235 235 242 212 250 209 166 170 200 240 201 193 167 166 146 173 153 113 138 147 158 154 149 147 147 148 147 147 147 145 140 130 117 103 91 63 44 18 0 10 360 358 359 358 356
134 163 161 159 193 185 194 181 185 209 238 189 241 235 160 164 198 206 126 65 120 128 135 159 163 187 173 149 146 160 164 160 157 154 156 155 152 149 146 144 142 137 102 62 46 37 13 8 4 359 355 353 354 356
155 171 196 187 171 208 193 196 204 210 195 195 217 216 137 199 199 102 66 20 65 77 72 154 160 146 134 140 137 143 155 155 158 151 148 154 152 155 159 159 158 147 109 101 78 46 25 11 360 359 353 349 343 353
165 186 187 196 208 186 210 233 173 161 206 202 240 157 189 195 95 67 74 43 42 16 67 112 132 136 132 124 128 131 131 131 143 140 137 140 142 138 143 156 156 150 129 106 73 47 19 1 353 349 347 345 341 342
218 174 179 180 196 206 306 248 201 212 225 129 148 128 58 24 65 348 38 44 97 55 110 117 120 131 130 128 127 134 142 149 146 139 133 128 125 113 123 140 166 163 144 93 45 23 8 356 350 345 341 340 336 338
212 176 152 178 166 211 188 324 350 53 351 83 82 84 84 67 24 47 69 92 133 116 115 119 121 127 121 115 110 108 110 122 133 135 131 128 120 112 115 119 119 114 52 333 325 326 335 335 337 343 347 343 339 341
166 163 126 152 130 100 32 332 360 41 90 112 110 108 93 74 60 86 76 60 76 136 154 155 155 127 120 125 122 126 130 131 135 131 129 139 140 135 130 125 119 92 35 5 353 339 345 1 348 349 350 350 343 352
154 148 102 83 85 91 101 103 110 110 89 84 100 117 119 117 71 64 97 80 90 104 106 115 119 123 128 131 122 116 114 117 127 126 121 115 116 121 127 128 79 20 355 349 351 349 354 351 350 352 354 355 351 354
146 151 138 122 121 143 120 60 70 74 83 87 84 104 94 85 77 64 74 89 97 103 105 112 119 117 123 130 135 132 130 117 109 104 104 104 106 111 83 23 357 350 354 1 2 355 356 357 358 349 347 346 347 348
109 112 114 112 128 151 143 123 97 97 84 91 86 83 76 73 89 105 107 134 118 118 120 122 126 124 124 124 125 126 124 118 113 111 107 104 112 103 77 63 45 41 27 23 7 354 350 351 350 350 349 349 349 349
Wind_Speed_850mb
38 35 33 35 35 36 35 31 30 26 26 18 20 19 20 20 19 17 13 15 16 11 28 23 13 17 18 14 6 4 14 3 4 6 6 6 7 3 6 6 11 18 16 12 16 10 14 4 10 10 23 37 45 52
40 38 35 33 31 31 30 29 29 28 26 26 21 20 21 21 22 20 21 18 20 25 21 30 47 43 41 33 10 8 6 1 4 5 4 7 7 7 4 5 8 8 10 5 9 3 3 6 12 17 18 42 46 53
39 39 37 34 33 33 32 30 29 29 30 31 27 22 22 23 24 25 24 18 15 16 33 16 9 12 9 21 33 15 10 11 8 3 5 5 7 3 5 8 9 8 8 7 5 6 2 20 10 11 34 40 49 52
38 39 38 35 36 36 32 30 28 27 24 32 32 21 21 26 26 29 21 15 14 10 6 3 4 13 15 27 29 41 25 9 4 10 6 6 6 5 5 7 13 6 4 9 16 17 13 4 11 29 37 41 48 52
36 37 38 37 35 35 32 30 28 25 24 30 30 21 19 26 29 22 20 17 17 12 7 21 42 13 12 12 31 35 43 30 11 6 6 5 7 6 9 10 16 18 14 12 9 10 14 24 28 32 37 44 49 54
31 34 33 31 31 31 28 28 28 25 24 25 29 21 21 29 25 19 10 17 25 22 7 7 9 10 8 8 18 31 35 31 14 7 8 11 3 8 6 7 1 3 6 3 11 16 23 29 25 29 38 44 50 53
28 27 28 30 29 28 27 27 25 22 20 22 31 24 17 32 31 20 10 4 7 17 5 10 7 4 5 6 20 22 27 16 13 8 9 10 5 9 6 12 4 5 2 4 12 17 22 17 33 35 36 43 48 49
29 29 27 27 27 25 26 23 20 18 24 25 31 22 27 37 28 24 20 13 9 9 6 6 7 7 8 8 11 20 15 19 16 7 6 8 6 12 7 2 8 4 3 10 12 18 23 27 29 30 35 43 49 50
32 29 29 29 29 25 21 15 15 22 29 25 31 25 37 26 16 15 11 15 19 11 6 8 5 1 2 1 5 17 18 8 12 6 7 8 7 10 4 8 13 9 6 13 19 21 18 23 26 31 38 43 47 52
32 30 30 28 27 24 22 17 21 21 19 22 34 14 12 13 18 22 12 12 11 7 10 6 13 9 6 5 4 2 10 6 5 8 13 8 6 6 5 7 10 5 3 13 20 17 22 24 28 33 38 39 41 47
32 30 27 25 25 22 25 19 17 15 19 48 14 10 20 27 17 8 7 8 9 7 11 12 21 15 8 9 2 6 2 3 5 7 8 7 5 11 11 8 6 1 7 10 11 14 16 21 28 34 36 36 38 42
33 32 29 26 23 20 27 23 14 20 28 20 12 23 27 11 7 6 7 9 9 7 13 10 10 17 8 6 6 5 4 4 4 17 6 3 7 17 16 9 1 5 8 9 11 11 15 21 24 26 29 33 35 37
35 33 31 29 25 20 31 24 24 34 22 29 9 12 9 7 8 10 13 8 7 9 10 11 6 8 9 10 6 4 8 5 12 6 5 4 18 20 14 7 1 4 5 6 10 13 17 21 23 25 26 28 30 33
26 30 32 25 25 23 27 18 21 31 26 10 9 10 9 9 9 9 9 2 4 5 10 13 6 9 10 8 5 6 2 4 5 8 4 10 19 21 13 5 5 8 7 9 11 15 19 22 24 23 24 25 28 31
23 18 18 22 22 19 20 19 22 46 11 6 7 8 12 12 5 2 1 8 10 9 6 8 7 11 6 5 5 5 6 7 6 4 6 19 25 20 13 13 11 9 9 11 12 17 20 22 23 23 24 24 26 30
17 17 24 25 23 19 26 27 48 38 8 8 8 6 10 6 11 20 19 22 15 16 9 8 4 5 6 5 8 8 5 2 4 7 20 29 24 19 19 16 12 10 10 12 14 17 19 22 24 24 25 27 28 31
16 15 12 14 27 22 31 46 29 12 9 6 8 17 15 10 13 8 11 10 8 11 5 5 7 6 5 4 4 2 1 4 14 22 26 24 24 25 21 16 12 9 11 12 14 18 18 19 21 24 28 30 30 31
18 14 9 22 38 34 28 26 9 10 10 14 9 11 18 14 12 11 7 11 6 8 7 4 5 4 3 5 5 5 8 13 20 27 26 26 27 24 19 16 12 10 10 11 13 15 17 19 22 25 26 28 28 33
16 10 22 29 38 21 12 15 9 7 15 7 15 15 12 15 17 16 12 11 8 13 5 4 5 5 3 1 6 8 17 24 30 27 29 28 26 23 18 15 12 10 9 10 10 12 14 18 19 22 24 27 29 34
19 22 17 19 25 11 7 7 14 6 7 6 10 12 13 10 7 14 16 13 13 7 7 7 6 5 13 5 8 5 20 30 34 35 32 27 23 19 16 13 10 8 8 8 9 12 11 13 18 21 25 27 28 32
25 19 14 29 26 8 9 8 8 7 4 7 6 10 8 9 14 15 10 15 10 6 6 12 14 14 4 5 3 17 28 29 26 29 35 32 24 19 17 13 11 7 6 7 8 10 14 14 17 20 23 25 26 28
24 26 29 35 7 8 3 8 4 5 6 5 5 8 7 6 10 11 11 13 7 10 11 14 18 12 2 4 18 24 28 25 24 30 30 31 26 23 18 14 11 9 8 7 7 7 10 13 17 18 21 23 25 25
33 24 10 12 4 5 5 10 6 6 5 4 3 3 5 5 3 10 5 8 9 15 17 20 24 9 11 12 21 28 26 27 30 30 30 24 24 21 19 14 12 10 8 7 7 6 7 14 16 18 20 23 24 25
21 11 6 9 7 7 8 8 5 4 4 4 3 5 4 3 10 5 3 3 2 11 19 21 26 10 5 15 19 26 27 24 28 28 24 24 24 20 16 14 11 9 7 6 5 5 7 10 17 16 19 22 23 24
8 8 9 5 7 9 9 8 7 4 6 8 4 5 3 7 4 3 2 3 8 12 10 13 22 19 14 15 17 22 25 25 27 26 23 19 21 20 16 13 11 8 6 4 4 5 7 10 13 16 18 20 25 24
4 8 10 14 10 9 9 5 9 9 5 7 8 3 4 3 4 5 4 7 11 11 7 9 18 18 17 16 20 21 25 22 21 23 21 20 18 15 15 13 10 4 5 5 4 5 7 10 14 18 19 21 29 26
7 7 10 10 7 7 6 8 4 3 6 7 3 5 4 5 5 5 4 12 9 10 5 11 13 17 19 22 24 25 23 22 21 21 23 21 18 15 11 8 7 8 9 7 6 7 8 12 15 18 20 20 22 24
3 10 8 18 11 10 1 2 5 5 5 5 8 1 2 8 5 5 4 5 12 8 12 19 21 17 21 24 23 23 23 23 23 24 27 24 20 14 12 10 10 13 8 3 7 9 12 14 17 19 20 21 22 23
6 10 10 11 4 7 5 2 3 3 6 3 3 4 6 7 9 8 8 10 19 16 17 22 24 21 28 29 30 28 24 21 24 25 18 16 12 12 13 12 11 8 3 9 13 16 20 24 24 22 19 20 21 22
8 16 5 6 1 3 4 3 2 3 8 12 15 15 14 12 17 15 24 14 12 16 22 24 26 25 24 25 30 33 34 29 22 10 7 15 16 15 12 10 7 4 4 7 9 17 25 20 20 19 20 19 22 24
22 11 6 6 5 6 14 18 17 16 11 15 19 23 19 14 23 23 26 26 16 19 21 27 27 26 26 24 19 19 19 16 15 14 14 16 15 12 9 5 4 4 7 10 12 15 17 16 17 18 19 21 23 25
12 8 10 6 5 12 9 6 8 9 9 10 12 15 10 9 8 8 20 26 20 26 26 25 29 28 23 21 20 20 23 24 20 16 14 13 10 6 4 4 6 8 9 10 11 13 14 14 14 18 20 22 25 27
9 12 15 11 8 7 7 7 6 6 7 6 6 7 8 7 7 4 8 18 23 22 25 25 29 29 28 27 26 23 16 11 9 7 5 3 2 4 8 8 7 8 9 9 11 14 16 17 18 20 22 24 26 28
Wind_Direction_850mb
285 288 287 282 277 275 278 279 271 267 270 282 283 274 260 258 267 262 253 236 225 233 286 264 245 255 256 233 240 312 299 144 251 250 248 263 251 148 266 186 185 184 186 203 229 246 257 78 301 315 336 314 316 319
282 281 281 282 281 280 279 277 275 269 267 263 275 273 265 251 255 253 242 259 258 238 257 285 278 260 245 241 254 217 291 268 286 281 290 282 224 187 59 271 210 245 227 226 228 255 118 303 304 306 319 314 319 317
278 277 277 278 279 280 279 278 277 276 264 253 258 264 255 246 243 258 253 259 261 272 299 265 280 230 193 223 222 224 216 228 230 258 293 280 274 263 223 244 281 220 215 243 273 124 307 305 305 281 324 319 318 315
280 275 276 275 277 278 275 272 276 283 279 243 248 262 247 242 249 249 254 246 245 267 278 300 237 225 278 254 229 226 218 205 238 316 284 257 257 243 277 318 273 356 271 275 261 268 313 189 319 323 320 322 319 319
283 281 275 275 274 273 271 267 271 285 292 245 246 249 250 242 235 242 246 247 246 234 283 288 296 285 232 231 230 221 220 229 247 253 231 257 272 264 238 283 258 242 280 270 277 358 310 304 321 321 323 325 324 324
286 283 280 276 271 268 265 262 265 274 280 253 239 240 239 232 223 219 244 259 238 240 283 287 322 288 240 251 200 203 220 216 219 233 247 261 253 267 266 264 64 218 225 315 314 309 300 301 312 324 323 324 326 327
291 291 292 283 269 267 264 264 264 265 277 255 231 241 232 239 216 202 206 168 182 180 231 277 268 211 231 250 182 184 189 204 204 232 233 269 236 242 261 264 183 199 228 283 291 304 302 321 322 324 324 325 327 328
292 292 291 289 281 271 264 257 257 275 280 271 228 235 255 209 217 221 233 248 240 197 198 270 269 269 190 202 181 186 188 195 213 241 211 233 224 230 255 222 107 138 258 279 283 302 303 312 318 326 328 331 334 335
287 288 289 285 282 276 253 242 264 280 279 263 210 230 190 186 197 217 228 219 225 202 227 225 253 294 184 211 230 188 185 190 186 219 203 195 224 226 290 175 176 185 219 305 308 309 316 324 328 333 336 337 338 337
283 281 283 276 271 262 237 252 281 284 272 182 188 168 169 179 180 142 143 185 207 235 232 241 242 255 233 167 278 227 192 205 208 209 164 223 247 80 52 125 142 139 305 319 320 330 333 333 336 337 339 338 339 339
275 275 277 267 272 256 233 249 262 215 200 182 171 164 137 138 143 156 171 204 186 232 219 228 234 241 263 251 220 273 170 219 220 158 206 194 225 161 166 145 129 9 334 330 327 326 329 330 335 338 341 343 344 344
268 266 266 266 267 265 228 243 230 228 188 194 171 126 136 169 157 181 201 178 221 244 189 217 213 208 238 231 235 235 255 239 208 158 214 252 120 145 159 162 146 344 338 336 340 350 348 345 345 343 343 346 348 348
265 255 258 257 259 268 227 232 209 204 192 148 154 143 163 152 192 212 193 193 215 202 194 195 190 186 197 199 223 230 228 196 146 170 217 111 145 155 162 168 115 10 12 37 18 9 360 356 357 357 352 352 354 354
269 265 256 247 241 260 231 204 221 208 189 188 165 157 220 176 229 211 249 30 105 201 197 213 194 188 184 179 233 237 129 160 206 205 186 134 156 158 158 148 126 95 65 34 27 19 12 9 7 8 5 3 1 3
274 253 238 236 232 244 206 192 203 191 173 185 182 213 209 241 243 149 254 250 233 235 261 286 211 182 191 225 215 225 188 216 225 95 101 126 146 149 142 130 116 95 66 46 37 25 21 19 19 20 15 14 16 15
263 236 244 243 230 234 194 196 183 188 206 204 222 237 225 228 234 220 240 253 249 243 244 218 248 201 202 218 195 215 214 205 115 103 123 141 142 140 137 129 114 93 68 54 43 31 29 30 31 32 31 29 21 17
228 229 249 203 195 174 178 181 184 197 210 215 232 231 257 265 275 238 221 238 238 186 193 213 219 192 155 207 208 181 144 84 126 126 138 143 143 141 138 131 117 94 70 60 46 36 36 36 37 36 30 24 19 18
222 236 220 171 163 169 174 193 183 188 228 225 234 218 214 240 256 241 256 205 196 198 201 227 319 182 212 171 136 128 129 123 129 136 138 140 140 138 136 132 123 106 80 64 54 47 43 40 34 28 23 21 18 17
213 215 176 173 174 165 155 179 200 217 226 236 245 242 237 253 251 240 225 259 248 208 248 198 237 188 184 209 23 123 146 148 141 137 137 140 140 137 132 130 127 107 84 66 59 53 42 37 34 26 20 20 19 14
195 185 168 172 185 183 155 175 181 218 219 233 236 237 235 250 259 227 212 229 232 194 201 200 215 198 161 331 356 129 155 151 146 141 144 147 147 142 139 137 138 118 82 63 48 58 37 32 25 20 15 17 19 15
176 184 184 185 177 170 176 169 182 202 235 243 245 238 257 246 241 221 200 207 185 225 211 189 186 139 24 351 117 146 149 152 156 157 154 151 152 148 142 136 128 115 88 62 55 35 39 27 15 12 13 9 13 10
172 177 170 178 163 193 173 189 187 176 212 246 232 226 240 219 230 211 178 194 219 213 214 189 159 164 261 107 131 139 143 140 138 144 147 148 147 145 140 135 125 108 93 77 64 49 33 17 18 9 6 7 6 0
171 175 139 174 141 165 149 163 184 203 228 237 204 226 231 223 127 155 211 209 221 217 198 172 159 106 124 128 138 143 142 139 140 142 146 148 146 143 137 131 121 110 90 69 65 46 17 20 358 11 2 1 360 358
156 150 150 160 172 167 171 186 206 235 235 242 212 250 209 166 170 200 240 201 193 167 166 146 173 153 113 138 147 158 154 149 147 147 148 147 147 147 145 140 130 117 103 91 63 44 18 0 10 360 358 359 358 356
134 163 161 159 193 185 194 181 185 209 238 189 241 235 160 164 198 206 126 65 120 128 135 159 163 187 173 149 146 160 164 160 157 154 156 155 152 149 146 144 142 137 102 62 46 37 13 8 4 359 355 353 354 356
155 171 196 187 171 208 193 196 204 210 195 195 217 216 137 199 199 102 66 20 65 77 72 154 160 146 134 140 137 143 155 155 158 151 148 154 152 155 159 159 158 147 109 101 78 46 25 11 360 359 353 349 343 353
165 186 187 196 208 186 210 233 173 161 206 202 240 157 189 195 95 67 74 43 42 16 67 112 132 136 132 124 128 131 131 131 143 140 137 140 142 138 143 156 156 150 129 106 73 47 19 1 353 349 347 345 341 342
218 174 179 180 196 206 306 248 201 212 225 129 148 128 58 24 65 348 38 44 97 55 110 117 120 131 130 128 127 134 142 149 146 139 133 128 125 113 123 140 166 163 144 93 45 23 8 356 350 345 341 340 336 338
212 176 152 178 166 211 188 324 350 53 351 83 82 84 84 67 24 47 69 92 133 116 115 119 121 127 121 115 110 108 110 122 133 135 131 128 120 112 115 119 119 114 52 333 325 326 335 335 337 343 347 343 339 341
166 163 126 152 130 100 32 332 360 41 90 112 110 108 93 74 60 86 76 60 76 136 154 155 155 127 120 125 122 126 130 131 135 131 129 139 140 135 130 125 119 92 35 5 353 339 345 1 348 349 350 350 343 352
154 148 102 83 85 91 101 103 110 110 89 84 100 117 119 117 71 64 97 80 90 104 106 115 119 123 128 131 122 116 114 117 127 126 121 115 116 121 127 128 79 20 355 349 351 349 354 351 350 352 354 355 351 354
146 151 138 122 121 143 120 60 70 74 83 87 84 104 94 85 77 64 74 89 97 103 105 112 119 117 123 130 135 132 130 117 109 104 104 104 106 111 83 23 357 350 354 1 2 355 356 357 358 349 347 346 347 348
109 112 114 112 128 151 143 123 97 97 84 91 86 83 76 73 89 105 107 134 118 118 120 122 126 124 124 124 125 126 124 118 113 111 107 104 112 103 77 63 45 41 27 23 7 354 350 351 350 350 349 349 349 349